RH
95 95 95 94 92 95 97 97 97 98 98 99 98 99 99 96 96 99 98 99 99 99 98 98 99 98 99 99 99 98 98 99 99 96 99 99 99 99 98 98 97 98 98
95 94 94 94 92 95 96 96 96 98 98 98 98 99 98 98 99 99 98 98 98 98 99 98 99 97 99 99 99 99 98 98 98 97 99 99 99 99 99 98 98 96 97
96 94 93 94 95 95 96 96 97 98 98 98 98 97 98 98 98 98 97 98 98 99 99 98 99 99 99 100 99 99 99 99 99 99 100 99 100 98 96 84 88 95 84
95 95 94 93 94 96 97 97 98 98 98 99 99 98 98 94 91 93 95 97 98 98 98 97 97 96 97 98 99 99 99 99 99 99 100 100 99 99 98 96 90 93 96
93 90 94 94 96 97 97 98 99 98 99 98 98 98 98 96 96 98 96 97 97 98 98 98 98 95 93 94 98 98 97 98 99 99 99 99 100 99 98 98 92 89 90
94 87 81 95 97 98 98 99 98 98 98 98 98 94 98 95 97 95 96 98 98 98 99 99 99 97 97 97 96 95 97 99 98 99 99 99 99 99 99 100 99 97 94
92 90 84 96 98 99 98 98 98 97 93 95 94 94 94 97 97 95 93 96 92 95 96 98 97 95 91 87 76 70 72 77 90 98 98 99 96 98 97 99 99 99 98
99 96 95 97 98 99 98 98 97 95 92 93 93 97 94 94 92 91 87 86 89 92 88 85 92 79 71 63 64 68 71 73 68 70 90 95 89 87 90 89 96 98 98
97 97 96 96 98 98 98 98 97 96 98 97 88 82 87 84 87 83 77 79 81 86 92 95 83 82 82 80 75 81 80 81 78 81 81 82 83 84 73 61 69 71 75
97 98 98 95 96 98 98 98 93 86 97 93 90 82 86 78 83 80 68 68 83 84 86 90 85 87 86 85 77 76 80 85 74 71 68 66 67 70 75 70 74 78 82
97 97 98 97 98 97 96 94 93 96 98 97 98 90 86 79 82 85 80 65 73 75 81 87 93 90 89 87 81 76 85 87 84 76 67 58 55 63 74 90 91 86 93
97 98 98 98 98 96 96 97 95 96 96 97 98 99 98 98 93 93 92 87 81 81 90 90 92 88 86 84 74 84 84 77 70 77 69 58 53 50 50 66 58 72 79
98 98 98 98 98 98 98 99 99 98 99 99 99 99 99 99 99 96 94 92 90 96 97 92 89 87 80 77 83 81 74 71 67 65 69 76 76 69 55 54 57 61 67
98 98 98 98 99 99 99 99 99 99 99 98 98 99 99 99 99 99 98 97 91 94 85 78 81 81 83 78 77 79 83 88 81 77 73 74 68 56 53 63 60 67 61
88 91 94 98 98 98 98 97 94 88 90 92 93 87 89 89 92 90 90 79 74 76 88 91 85 88 94 88 80 84 88 85 82 82 68 64 62 60 57 68 76 70 74
63 60 56 53 53 54 55 59 78 83 83 84 82 72 83 84 86 79 74 76 81 81 77 80 85 89 90 88 76 74 77 76 84 80 76 69 63 63 63 69 75 75 71
66 62 58 54 47 55 59 59 60 67 79 84 82 80 79 81 79 76 74 82 78 72 79 92 87 84 86 81 78 79 80 77 84 76 68 67 62 61 65 68 75 73 71
67 63 56 57 55 54 52 54 57 59 62 66 71 71 74 73 74 78 82 74 70 76 84 87 86 82 80 78 82 78 81 77 78 70 68 69 67 64 65 67 68 75 75
65 64 62 60 60 60 62 63 58 59 62 64 63 62 63 71 78 79 76 68 71 76 81 84 83 78 74 76 78 77 82 79 77 69 70 70 70 70 70 71 66 62 68
68 59 61 62 65 63 68 71 67 60 58 58 58 56 57 56 61 66 62 63 68 71 73 74 74 73 70 74 74 78 86 76 71 70 70 68 68 74 73 68 67 69 69
69 72 66 69 66 66 67 69 68 64 59 60 57 59 69 54 61 65 58 60 61 64 66 71 70 72 70 70 75 74 75 73 72 72 70 66 65 68 80 73 74 74 73
73 77 75 71 70 66 61 64 77 68 66 64 69 65 77 62 63 62 58 59 63 63 64 63 67 68 72 69 72 73 74 71 74 73 69 63 64 78 81 76 74 70 65
69 65 67 72 75 76 72 71 71 67 63 63 60 51 56 52 59 58 56 58 64 62 66 66 66 68 71 72 76 77 75 73 71 72 67 64 66 78 83 77 72 64 63
62 65 66 74 73 76 72 74 72 70 62 58 46 42 45 54 54 56 59 62 64 66 68 69 65 60 64 75 80 80 75 74 73 68 67 66 71 74 79 76 67 62 62
54 61 74 74 71 74 74 75 74 64 58 51 39 41 47 56 58 59 63 64 67 70 68 66 61 58 64 66 71 72 79 81 67 69 64 62 64 71 78 76 68 64 58
56 61 77 80 75 70 73 77 75 72 63 51 46 43 45 52 54 59 65 67 68 70 70 65 61 57 58 64 63 69 80 84 70 71 58 66 74 74 79 76 79 71 65
Wind_Speed
6 5 5 2 1 3 4 5 5 5 6 5 4 5 4 1 3 4 4 4 4 4 4 5 4 4 3 3 2 1 0 1 2 2 2 4 4 4 4 6 6 4 4
6 5 5 3 1 4 5 5 5 5 5 5 5 6 6 6 6 4 4 4 6 6 6 6 5 4 3 3 3 2 1 1 2 1 3 3 5 3 3 5 5 5 5
5 6 4 3 2 4 5 4 5 5 6 6 6 7 7 7 8 8 7 8 8 6 4 5 5 5 4 4 4 5 3 2 2 2 2 2 3 3 4 5 4 6 5
6 6 5 5 4 4 5 6 6 5 6 7 7 8 8 8 9 9 10 10 9 8 7 7 6 5 7 5 4 5 4 4 4 3 3 3 3 3 3 3 3 4 4
5 6 7 6 6 5 6 6 6 7 6 6 7 7 7 7 5 7 8 8 8 8 8 9 9 10 9 6 3 2 4 3 3 2 2 1 1 1 2 1 2 2 4
5 3 4 6 9 7 7 7 7 6 6 6 6 7 7 6 10 12 9 7 7 6 7 7 7 9 11 14 14 14 11 2 3 2 2 1 1 1 1 1 3 2 2
3 4 5 6 6 7 8 7 7 6 6 7 6 6 6 5 10 12 12 6 7 5 5 4 5 5 7 6 12 15 17 17 14 2 3 4 3 4 3 2 3 3 2
6 3 6 7 8 8 7 7 6 5 6 5 5 5 4 6 11 13 15 9 8 8 7 5 6 6 6 7 10 12 12 13 11 9 9 6 5 4 3 2 3 5 4
8 2 6 9 10 8 8 6 5 7 5 5 4 6 8 7 10 12 11 8 9 9 8 7 6 6 9 8 9 9 8 7 11 14 14 13 13 12 8 3 4 3 3
7 8 4 8 9 11 9 7 4 6 5 5 7 8 9 7 9 11 9 5 9 7 8 9 16 9 13 11 8 6 8 5 4 5 5 9 9 9 13 8 3 3 2
7 8 8 8 9 8 10 8 7 7 7 8 9 8 8 7 8 10 9 7 7 7 7 6 5 13 12 12 9 5 3 3 6 5 4 4 5 5 5 5 5 4 3
8 9 10 9 7 6 8 7 8 7 8 7 9 7 6 7 10 12 13 11 9 8 7 5 6 12 11 10 8 10 10 7 4 4 4 4 5 5 5 5 6 4 3
10 10 10 10 10 8 8 6 7 6 6 5 7 5 5 5 6 12 13 14 12 7 5 7 9 10 11 9 15 14 10 5 5 5 4 3 2 3 4 4 4 5 5
10 9 8 9 9 8 7 5 4 6 5 5 6 4 4 4 5 4 5 6 9 6 7 7 8 10 12 8 7 7 5 4 4 3 3 2 3 4 4 3 3 4 3
9 8 8 7 8 8 8 4 4 4 5 4 4 4 6 5 2 3 5 4 4 4 5 4 5 4 5 4 5 5 5 5 5 3 3 3 4 3 4 4 2 3 3
8 6 5 6 5 6 6 7 15 11 11 9 10 5 4 6 6 8 7 6 6 5 6 4 3 3 4 2 3 3 4 5 4 3 3 3 3 4 3 4 3 3 3
8 5 5 5 5 5 4 5 7 6 12 11 9 8 8 7 7 7 6 10 8 7 5 2 4 3 2 3 3 3 2 3 2 4 3 3 3 3 4 3 3 3 3
7 8 5 4 4 4 4 4 4 4 4 2 6 5 7 7 7 7 9 7 4 5 3 3 3 3 1 1 1 1 1 2 2 3 3 3 3 2 3 3 3 2 1
6 4 4 4 3 3 3 3 4 5 4 4 2 3 3 6 7 7 5 4 4 2 2 2 3 3 2 2 1 1 2 3 3 2 2 3 3 2 2 2 3 3 3
4 8 6 4 4 4 3 4 3 3 3 3 3 3 1 3 3 3 3 2 3 3 3 4 3 3 3 3 2 1 2 2 2 2 2 2 2 2 2 2 2 2 2
4 4 7 4 4 4 4 4 3 3 3 3 3 2 3 3 3 2 3 2 3 4 4 4 4 4 3 2 2 0 2 3 3 3 2 1 2 2 2 2 2 3 1
4 4 5 6 5 5 5 4 4 4 4 4 3 2 6 1 2 4 4 4 4 4 3 3 4 4 4 4 4 3 4 4 3 2 2 0 1 2 2 2 3 3 3
5 5 5 4 5 6 5 5 5 5 5 5 4 4 4 4 4 5 5 5 4 4 3 3 3 4 4 3 4 5 5 5 5 4 2 0 0 1 1 1 1 1 1
4 6 6 6 5 5 5 5 5 7 6 5 5 5 5 4 6 6 5 5 5 4 4 4 4 6 4 3 1 1 2 3 3 3 3 2 2 2 1 1 1 2 2
3 4 5 6 5 5 5 5 5 6 6 6 5 5 5 5 5 5 5 5 5 5 6 5 5 7 7 8 6 6 5 6 5 5 3 3 4 3 2 1 1 2 2
2 2 3 4 4 4 4 4 5 6 6 7 7 7 8 7 7 6 6 5 5 5 6 5 7 10 10 8 9 9 8 6 5 7 4 3 4 3 2 3 4 2 3
Wind_Direction
172 166 160 194 123 53 39 31 24 19 25 42 63 75 51 349 195 177 186 170 172 166 148 145 123 139 160 168 101 76 114 142 211 333 10 6 28 44 47 61 51 49 50
175 169 172 172 89 61 50 37 38 38 31 39 36 51 62 65 74 98 116 121 137 125 116 114 128 148 143 111 98 76 44 135 181 20 38 11 57 10 32 44 34 43 32
171 177 168 150 106 87 74 54 48 44 36 33 52 59 62 68 73 64 71 73 67 66 81 142 149 130 113 107 107 99 67 57 83 120 96 46 69 75 54 50 46 50 42
174 176 169 176 153 115 93 73 63 47 41 32 39 53 51 60 76 85 81 73 66 56 54 62 60 97 114 104 104 116 103 85 82 83 75 66 74 48 71 78 56 49 45
181 180 180 164 141 121 99 83 66 55 44 38 40 45 50 53 48 64 73 78 77 64 51 57 58 66 68 75 99 76 112 95 89 87 95 81 70 128 104 137 91 89 43
214 215 149 146 138 123 110 98 88 75 55 55 46 49 49 58 74 79 79 77 71 74 72 59 51 56 59 63 67 57 44 27 148 169 175 171 103 50 36 154 126 120 126
249 185 133 126 120 123 120 109 100 86 78 62 46 43 51 51 77 83 85 81 84 82 86 85 80 67 60 57 62 61 52 49 45 360 75 33 40 10 11 20 76 83 84
353 172 140 129 122 114 108 109 99 80 71 71 61 54 59 46 74 75 74 67 56 41 34 56 70 68 58 78 76 67 56 53 51 66 73 63 52 18 39 1 50 85 80
10 346 144 137 125 118 108 95 85 94 79 62 55 62 81 68 63 75 78 73 68 51 36 48 69 74 68 60 77 74 70 63 60 70 76 68 60 54 39 78 56 74 59
13 346 128 132 133 127 120 102 77 85 78 66 60 49 61 82 67 81 92 92 81 71 53 47 59 70 63 52 69 72 70 37 44 55 30 39 44 39 46 59 39 76 61
29 34 41 75 101 108 110 110 107 100 97 83 76 60 59 51 63 66 69 92 99 93 82 65 45 56 58 54 52 66 86 98 76 80 56 44 38 35 33 35 44 72 70
62 58 52 62 73 84 97 107 105 102 92 86 84 71 51 47 57 69 68 66 77 94 85 72 63 58 52 45 48 46 46 58 64 69 63 42 40 28 11 19 18 20 36
80 74 68 67 68 64 74 79 94 90 95 91 88 81 74 58 67 64 75 76 66 76 76 83 66 54 46 44 44 44 41 45 50 53 43 33 22 338 353 8 3 22 38
75 70 75 84 75 62 68 44 59 86 86 87 89 101 86 73 64 51 63 72 68 67 58 57 66 68 65 56 44 35 38 56 76 76 58 16 351 15 19 1 22 356 45
85 83 80 78 82 83 64 31 67 49 80 111 107 111 108 102 84 72 76 78 74 75 70 41 40 43 52 36 35 38 33 42 56 39 51 43 28 19 2 354 24 20 63
99 92 90 97 92 92 98 82 47 61 70 81 80 99 48 92 104 82 78 83 95 98 58 71 61 61 86 74 58 46 38 45 35 53 55 51 37 22 9 2 32 47 50
107 99 98 94 107 109 90 99 102 47 64 59 79 88 92 115 77 62 90 84 75 77 94 89 105 97 98 76 62 43 36 7 27 76 74 53 33 24 30 18 0 36 22
102 119 115 121 117 117 118 123 114 120 116 68 28 86 84 84 67 64 118 84 59 31 79 126 130 131 131 112 108 94 60 66 72 71 69 54 41 37 22 6 11 12 8
118 123 110 98 88 96 101 110 125 132 134 134 91 42 54 79 85 69 105 117 130 132 137 133 156 163 177 154 106 68 132 165 139 101 65 63 34 36 12 18 349 6 44
154 156 148 144 142 144 142 138 138 135 141 146 149 164 135 60 54 43 60 120 142 167 173 172 188 191 174 160 138 93 106 131 118 112 101 79 37 51 39 8 5 342 326
167 172 166 169 177 185 179 185 165 154 158 177 187 184 176 128 155 158 164 165 164 166 182 186 189 202 197 147 141 209 140 159 169 154 122 39 18 7 357 320 334 334 306
172 197 195 199 184 196 196 184 193 186 199 196 209 224 192 173 192 178 181 197 204 190 184 173 191 199 198 190 191 200 191 199 196 176 177 92 40 15 351 324 11 32 32
200 191 203 209 184 187 187 184 193 189 209 212 196 200 188 199 200 195 194 200 200 180 182 191 192 193 205 221 213 206 198 205 201 181 180 166 324 296 299 304 40 7 8
222 218 206 200 177 170 177 184 193 196 197 205 202 205 203 195 196 203 198 200 197 192 193 191 191 181 197 216 226 197 184 167 166 183 164 167 209 262 291 277 333 290 292
231 245 202 186 182 180 176 182 195 199 202 200 203 205 206 199 204 211 202 202 195 189 205 196 194 190 192 193 201 202 203 182 178 167 157 172 203 216 209 209 270 305 294
7 21 211 181 172 170 193 190 209 201 204 212 208 204 203 201 209 207 201 196 201 209 205 197 201 199 199 204 203 198 191 193 195 186 167 176 191 217 222 252 277 235 266